Monett, MO

10:23 PM CST on November 11, 2019 (GMT -0600)
Monett

Weather History for KHFJ - October, 2019

Change the Weather History Date:

Wednesday, October 23, 2019

  Actual Average (WUND) Record (WUND)
Temperature  
Mean Temperature 56 °F -  
Max Temperature 69 °F - - (-1)
Min Temperature 44 °F - - (-1)
Degree Days  
Heating Degree Days 8    
Growing Degree Days 6 (Base 50)    
Moisture  
Dew Point 36 °F    
Average Humidity 46    
Maximum Humidity 66    
Minimum Humidity 28    
Precipitation  
Precipitation 0.00 in - - ()
Sea Level Pressure  
Sea Level Pressure 30.01 in    
Wind  
Wind Speed 11 mph ()    
Max Wind Speed 29 mph    
Max Gust Speed 38 mph    
Visibility 10.0 miles    
Events      
Averages and records for this station are not official NWS values.
T = Trace of Precipitation, MM = Missing Value Source: Averaged Metar Reports

Daily Weather History Graph

Daily Weather History Graph

Search for Another Location

Airport or City:

Astronomy

Oct. 23, 2019 Rise Set
Actual Time 7:30 AM CDT 6:29 PM CDT
Civil Twilight 7:04 AM CDT 6:55 PM CDT
Nautical Twilight 6:34 AM CDT 7:25 PM CDT
Astronomical Twilight 6:04 AM CDT 7:55 PM CDT
Moon 2:01 AM CDT (10/23) 4:10 PM CDT (10/23)
Length of Visible Light 11h 51m
Length of Day
10h 58m
Waning Crescent, 26% of the Moon is Illuminated
Oct 23
Waning Crescent
Oct 27
New
Nov 4
First Quarter
Nov 12
Full
Nov 19
Last Quarter

Hourly Weather History & Observations

Time (CDT) Temp. Windchill Dew Point Humidity Pressure Visibility Wind Dir Wind Speed Gust Speed Precip Events Conditions
12:15 AM 44.6 °F 41.4 °F 32.0 °F 61% 30.04 in 10.0 mi SSE 5.8 mph - N/A   Clear
12:35 AM 46.4 °F 44.3 °F 32.0 °F 57% 30.03 in 10.0 mi SSE 4.6 mph - N/A   Clear
12:55 AM 44.6 °F 41.4 °F 32.0 °F 61% 30.03 in 10.0 mi South 5.8 mph - N/A   Clear
1:15 AM 44.6 °F 40.7 °F 33.8 °F 66% 30.03 in 10.0 mi South 6.9 mph - N/A   Clear
1:35 AM 44.6 °F 40.7 °F 33.8 °F 66% 30.03 in 10.0 mi South 6.9 mph - N/A   Clear
1:55 AM 44.6 °F 39.7 °F 33.8 °F 66% 30.02 in 10.0 mi South 9.2 mph - N/A   Clear
2:15 AM 46.4 °F 42.4 °F 33.8 °F 62% 30.02 in 10.0 mi South 8.1 mph - N/A   Clear
2:35 AM 46.4 °F 42.4 °F 33.8 °F 62% 30.02 in 10.0 mi South 8.1 mph - N/A   Clear
2:55 AM 46.4 °F 42.9 °F 33.8 °F 62% 30.02 in 10.0 mi South 6.9 mph - N/A   Clear
3:15 AM 46.4 °F 41.9 °F 33.8 °F 62% 30.01 in 10.0 mi South 9.2 mph - N/A   Clear
3:35 AM 50.0 °F - 33.8 °F 54% 30.00 in 10.0 mi South 10.4 mph - N/A   Clear
4:00 AM 48.2 °F - 33.8 °F 58% 30.00 in 10.0 mi South 11.5 mph - N/A   Clear
4:15 AM 48.2 °F - 33.8 °F 58% 30.00 in 10.0 mi South 10.4 mph - N/A   Clear
4:35 AM 50.0 °F - 33.8 °F 54% 30.00 in 10.0 mi South 9.2 mph - N/A   Clear
4:50 AM 48.2 °F - 33.8 °F 58% 30.00 in 10.0 mi South 9.2 mph - N/A   Clear
5:35 AM 46.4 °F 41.5 °F 33.8 °F 62% 30.00 in 10.0 mi South 10.4 mph - N/A   Clear
6:15 AM 48.2 °F - 33.8 °F 58% 30.01 in 10.0 mi South 9.2 mph - N/A   Clear
6:35 AM 46.4 °F 41.5 °F 35.6 °F 66% 30.01 in 10.0 mi South 10.4 mph - N/A   Clear
6:55 AM 48.2 °F - 35.6 °F 62% 30.00 in 10.0 mi South 12.7 mph - N/A   Clear
7:15 AM 50.0 °F - 35.6 °F 58% 30.00 in 10.0 mi South 15.0 mph - N/A   Clear
7:35 AM 48.2 °F - 35.6 °F 62% 30.01 in 10.0 mi South 12.7 mph - N/A   Clear
7:55 AM 48.2 °F - 35.6 °F 62% 30.01 in 10.0 mi SSW 10.4 mph - N/A   Clear
8:15 AM 48.2 °F - 35.6 °F 62% 30.02 in 10.0 mi SSW 9.2 mph - N/A   Clear
8:35 AM 50.0 °F - 35.6 °F 58% 30.02 in 10.0 mi South 9.2 mph - N/A   Clear
8:55 AM 51.8 °F - 35.6 °F 54% 30.03 in 10.0 mi South 10.4 mph 16.1 mph N/A   Clear
9:15 AM 51.8 °F - 35.6 °F 54% 30.03 in 10.0 mi South 12.7 mph 18.4 mph N/A   Clear
9:55 AM 55.4 °F - 35.6 °F 47% 30.03 in 10.0 mi SSW 15.0 mph - N/A   Clear
10:15 AM 57.2 °F - 35.6 °F 44% 30.03 in 10.0 mi SSW 19.6 mph - N/A   Clear
10:35 AM 59.0 °F - 35.6 °F 42% 30.03 in 10.0 mi SSW 19.6 mph 25.3 mph N/A   Clear
10:55 AM 60.8 °F - 35.6 °F 39% 30.03 in 10.0 mi SSW 18.4 mph 25.3 mph N/A   Clear
11:15 AM 62.6 °F - 37.4 °F 39% 30.03 in 10.0 mi SSW 20.7 mph - N/A   Clear
11:35 AM 64.4 °F - 35.6 °F 34% 30.02 in 10.0 mi SSW 23.0 mph 34.5 mph N/A   Clear
11:55 AM 66.2 °F - 35.6 °F 32% 30.01 in 10.0 mi SSW 26.5 mph 34.5 mph N/A   Clear
12:15 PM 68.0 °F - 35.6 °F 30% 30.00 in 10.0 mi SSW 27.6 mph 35.7 mph N/A   Clear
12:55 PM 68.0 °F - 35.6 °F 30% 29.99 in 10.0 mi SSW 28.8 mph 34.5 mph N/A   Clear
1:15 PM 68.0 °F - 33.8 °F 28% 29.98 in 10.0 mi SSW 25.3 mph 38.0 mph N/A   Clear
1:35 PM 68.0 °F - 35.6 °F 30% 29.97 in 10.0 mi South 25.3 mph 31.1 mph N/A   Clear
1:55 PM 68.0 °F - 35.6 °F 30% 29.96 in 10.0 mi SSW 23.0 mph 34.5 mph N/A   Clear
2:15 PM 69.8 °F - 35.6 °F 28% 29.96 in 10.0 mi SSW 25.3 mph 33.4 mph N/A   Clear
2:35 PM 69.8 °F - 35.6 °F 28% 29.95 in 10.0 mi SSW 20.7 mph 32.2 mph N/A   Clear
2:55 PM 69.8 °F - 35.6 °F 28% 29.95 in 10.0 mi SSW 21.9 mph 33.4 mph N/A   Clear
3:15 PM 69.8 °F - 35.6 °F 28% 29.95 in 10.0 mi SSW 23.0 mph 32.2 mph N/A   Clear
3:35 PM 69.8 °F - 35.6 °F 28% 29.95 in 10.0 mi SSW 17.3 mph 34.5 mph N/A   Clear
3:55 PM 69.8 °F - 35.6 °F 28% 29.94 in 10.0 mi South 21.9 mph 28.8 mph N/A   Clear
4:15 PM 69.8 °F - 35.6 °F 28% 29.94 in 10.0 mi SSW 21.9 mph 27.6 mph N/A   Clear
4:35 PM 69.8 °F - 35.6 °F 28% 29.95 in 10.0 mi SSW 15.0 mph 23.0 mph N/A   Clear
4:55 PM 69.8 °F - 35.6 °F 28% 29.96 in 10.0 mi SSW 13.8 mph 24.2 mph N/A   Clear
5:15 PM 69.8 °F - 35.6 °F 28% 29.96 in 10.0 mi SSW 12.7 mph 21.9 mph N/A   Clear
5:35 PM 68.0 °F - 35.6 °F 30% 29.97 in 10.0 mi SSW 13.8 mph 21.9 mph N/A   Clear
5:55 PM 68.0 °F - 35.6 °F 30% 29.97 in 10.0 mi SSW 13.8 mph 19.6 mph N/A   Clear
6:15 PM 64.4 °F - 35.6 °F 34% 29.98 in 10.0 mi SSW 11.5 mph - N/A   Clear
6:35 PM 62.6 °F - 37.4 °F 39% 29.99 in 10.0 mi South 8.1 mph - N/A   Clear
6:55 PM 60.8 °F - 35.6 °F 39% 30.00 in 10.0 mi South 8.1 mph - N/A   Clear
7:15 PM 60.8 °F - 35.6 °F 39% 30.00 in 10.0 mi South 8.1 mph - N/A   Clear
7:35 PM 59.0 °F - 35.6 °F 42% 30.02 in 10.0 mi South 6.9 mph - N/A   Scattered Clouds
7:55 PM 59.0 °F - 37.4 °F 45% 30.03 in 10.0 mi South 6.9 mph - N/A   Scattered Clouds
8:15 PM 59.0 °F - 37.4 °F 45% 30.03 in 10.0 mi South 5.8 mph - N/A   Scattered Clouds
8:35 PM 59.0 °F - 37.4 °F 45% 30.03 in 10.0 mi South 8.1 mph - N/A   Scattered Clouds
8:55 PM 59.0 °F - 37.4 °F 45% 30.03 in 10.0 mi South 10.4 mph - N/A   Scattered Clouds
9:15 PM 60.8 °F - 37.4 °F 42% 30.04 in 10.0 mi South 9.2 mph - N/A   Overcast
9:35 PM 60.8 °F - 37.4 °F 42% 30.05 in 10.0 mi South 8.1 mph - N/A   Overcast
10:15 PM 57.2 °F - 37.4 °F 48% 30.06 in 10.0 mi South 5.8 mph - N/A   Mostly Cloudy
10:35 PM 57.2 °F - 37.4 °F 48% 30.07 in 10.0 mi South 4.6 mph - N/A   Mostly Cloudy
10:55 PM 57.2 °F - 39.2 °F 51% 30.08 in 10.0 mi Calm Calm - N/A   Overcast
11:15 PM 57.2 °F - 39.2 °F 51% 30.08 in 10.0 mi WSW 3.5 mph - N/A   Overcast
11:35 PM 59.0 °F - 39.2 °F 48% 30.10 in 10.0 mi WNW 4.6 mph - N/A   Overcast
11:55 PM 59.0 °F - 41.0 °F 51% 30.12 in 10.0 mi NW 3.5 mph - N/A   Overcast